GPS BIIF-9 (40534 NORAD) Tracking and Keplerian Element Data

This shows tracking and keplerian element data for the satellite.

Feedback or suggestion? Click here.




ElementValue
Catalog40534
NameGPS BIIF-9
Epoch Orbit2943
Epoch Day113.00930003
Epoch Year2019
RAAN312.1809
Inclination54.5461
Eccentricity0.0037064
Argument of Perigee5.9127
Mean Anonmoly354.1378
Mean Motion2.00573171
Decay Rate-5.8E-07
L11 40534U 15013A 19113.00930003 -.00000058 00000-0 00000-0 0 9990
L22 40534 54.5461 312.1809 0037064 5.9127 354.1378 2.00573171 29436

Live tracking and technical data element details for GPS BIIF-9 (NORAD 40534). GPS BIIF-9 can be tracked NOW for your location showing map with azimuth and elevation plus other details from your city location.

Track the satellite on the map from your city or location and see movement details for azimuth, elevation, latitude, longitude, range, height, and movement on the map or in text.







IsCatalogInMostPopularTable: catalog: 40534, numindb: 206
Update: records affected: 1



GetName: 40534 GPS BIIF-9

Hit Count: updated at: Thu, 25 Apr 2019 20:18:51 GMT